Location: Unspecified
(0.0000°N, 0.0000°E)
Time: 06:31:32
(UTC+00:00)

NOAA 19 - Visible Passes

Search period start: 30 November 2022 00:00
Search period end: 10 December 2022 00:00
Orbit: 839 x 861 km, 99.1° (Epoch: 29 November)

Date Brightness Start Highest point End Pass type
(mag) Time Alt. Az. Time Alt. Az. Time Alt. Az.
30 Nov 7.5 20:48:32 10° SSW 20:50:20 19° SSW 20:50:20 19° SSW visible
01 Dec 7.2 20:36:12 10° S 20:38:18 22° SSW 20:38:18 22° SSW visible
02 Dec 7.0 20:24:03 10° S 20:26:17 25° S 20:26:17 25° S visible
03 Dec 6.8 20:12:00 10° S 20:14:15 25° S 20:14:15 25° S visible
04 Dec 6.7 20:00:06 10° SSE 20:02:14 24° SSE 20:02:14 24° SSE visible
05 Dec 6.8 19:48:19 10° SSE 19:50:12 22° SSE 19:50:12 22° SSE visible
06 Dec 6.9 19:36:39 10° SE 19:38:11 18° SE 19:38:11 18° SE visible
06 Dec 8.1 21:19:34 10° SW 21:20:10 11° SW 21:20:10 11° SW visible
07 Dec 7.1 19:25:10 10° SE 19:26:09 15° SE 19:26:09 15° SE visible
07 Dec 7.8 21:06:29 10° SSW 21:08:09 15° SW 21:08:09 15° SW visible
08 Dec 7.3 19:13:53 10° SE 19:14:07 11° ESE 19:14:07 11° ESE visible
08 Dec 7.4 20:53:51 10° SSW 20:56:07 20° SW 20:56:07 20° SW visible
09 Dec 7.1 20:41:27 10° SSW 20:44:04 25° SSW 20:44:04 25° SSW visible
